User: anonymous   Login
Location: Goheenville
(40.9070°N, 79.3720°W)
Time: 22:48:09
(UTC-05:00)
Language:

Meteor 2-10 Rocket - Orbit

View from above orbital plane
View from above orbital plane
View from above satellite
View from above satellite

Ground track
Ground track

The orbit data is extracted from the following two-line orbital elements,

1 14453U 83109B   15023.18992116  .00000068  00000-0  21884-4 0  3328
2 14453 081.1659 267.4917 0105973 077.9756 075.1890 14.24562328622806
Epoch (UTC): 23 January 2015 04:33:29
Eccentricity: 0.0105973
inclination: 81.1659°
perigee height: 734 km
apogee height: 886 km
right ascension of ascending node: 267.4917°
argument of perigee: 77.9756°
revolutions per day: 14.24562328
mean anomaly at epoch: 75.1890°
orbit number at epoch: 62280

The dashed part of the orbit path shows where the satellite is in the earth's shadow,  

DLR